Location: New Town
(33.2710°N, 90.7534°W)
Time: 03:13:43
(UTC+00:00)

ISS - Pass Details

Date: 23 April 2021
Orbit: 417 x 422 km, 51.6° (Epoch: 18 May)

Event Time Altitude Azimuth Distance (km) Brightness Sun altitude
Exits shadow 10:40:55 - 217° (SW) 1,531 -1.4 -9.2°
Reaches altitude 10° 10:41:01 10° 217° (SW) 1,491 -1.5 -9.2°
Maximum altitude 10:44:20 67° 134° (SE) 455 -3.5 -8.5°
Drops below altitude 10° 10:47:42 10° 51° (NE) 1,502 0.5 -7.9°
Sets 10:49:48 0° 49° (NE) 2,370 1.6 -7.5°
